Date,TemperatureHighF,TemperatureAvgF,TemperatureLowF,DewpointHighF,DewpointAvgF,DewpointLowF,HumidityHigh,HumidityAvg,HumidityLow,PressureMaxIn,PressureMinIn,WindSpeedMaxMPH,WindSpeedAvgMPH,GustSpeedMaxMPH,PrecipitationSumIn
2013-1-1,33,31,25,31,28,21,94,89,83,30.09,29.98,4,1,9,0.00
2013-1-2,27,22,18,21,14,-100,84,73,58,30.25,30.07,7,2,13,0.00
2013-1-3,34,23,11,22,16,8,91,76,59,30.25,30.14,10,3,17,0.01
2013-1-4,34,30,28,23,21,19,77,70,58,30.28,30.17,10,5,18,0.01
2013-1-5,37,31,26,27,22,18,79,71,61,30.41,30.19,7,2,14,0.07
2013-1-6,39,36,33,32,28,25,85,73,65,30.22,30.02,6,2,13,0.19
2013-1-7,36,31,22,31,25,20,90,79,64,30.47,30.22,5,2,11,0.12
2013-1-8,45,30,18,31,24,16,92,80,55,30.38,30.28,4,0,9,0.13
2013-1-9,47,37,26,42,33,24,93,85,68,30.50,30.26,8,2,15,0.08
2013-1-10,43,35,26,33,29,24,94,80,65,30.63,30.30,2,0,4,0.01
2013-1-11,56,48,40,54,42,29,97,81,59,30.30,29.99,4,0,7,0.18
2013-1-12,64,56,47,57,52,46,97,89,73,30.11,29.99,5,1,10,0.01
2013-1-13,68,60,51,56,53,49,96,80,65,29.99,29.89,8,2,17,0.13
2013-1-14,58,41,32,57,34,25,96,79,63,30.38,29.91,11,2,21,0.20
2013-1-15,34,31,27,30,25,23,92,80,72,30.40,30.09,2,0,7,0.04
2013-1-16,35,33,32,34,32,30,95,93,87,30.09,29.92,5,1,11,0.56
2013-1-17,35,33,32,31,29,28,88,84,78,30.20,30.03,6,2,11,0.01
2013-1-18,32,28,20,27,16,9,83,61,49,30.51,30.18,8,3,16,0.01
2013-1-19,54,43,31,23,18,13,54,37,26,30.29,29.88,11,5,22,0.00
2013-1-20,48,38,24,31,20,13,64,51,38,30.16,29.83,12,6,24,0.00
2013-1-21,28,23,14,17,13,1,78,65,54,30.14,29.92,10,4,23,0.00
2013-1-22,16,11,8,6,0,-3,76,61,45,30.29,30.07,10,5,20,0.00
2013-1-23,18,12,6,11,2,-1,82,64,47,30.31,30.07,7,3,13,0.00
2013-1-24,24,16,12,14,8,-1,87,71,40,30.54,30.06,7,2,16,0.00
2013-1-25,20,16,12,16,10,4,87,78,65,30.53,30.03,4,0,7,0.00
2013-1-26,28,24,18,23,19,15,89,82,69,30.46,30.10,5,2,12,0.01
2013-1-27,32,23,11,23,16,8,91,76,56,30.55,30.32,2,0,4,0.20
2013-1-28,51,41,30,50,38,22,95,90,72,30.33,30.04,7,2,12,0.30
2013-1-29,66,57,50,56,52,49,97,84,66,30.08,29.83,5,2,14,0.07
2013-1-30,70,58,50,55,52,44,95,80,59,29.83,29.28,9,3,31,1.00
2013-1-31,49,28,24,44,19,13,88,67,55,29.88,29.28,15,8,28,0.57